,,PA_Meas_PMT16A,,PR_Meas_QMR101_102,,RH_Meas_QMH101,,SR_Meas_QMS101,,TA_Meas_QMH101,,GenWind,,GenWind,
time,status,PA,status,PR,status,RH,status,SR,status,TA,status,DirAvg,status,SpdAvg,
2013-07-07, 00:00:05,VALID,917.812,VALID,0,VALID,92.0223,VALID,0,VALID,18.5358,VALID,135,VALID,0,
2013-07-07, 00:01:05,VALID,917.82,VALID,0,VALID,92.3119,VALID,0,VALID,18.4759,VALID,136,VALID,0,
2013-07-07, 00:02:05,VALID,917.81,VALID,0,VALID,92.3119,VALID,0,VALID,18.4369,VALID,139,VALID,0,
2013-07-07, 00:03:05,VALID,917.765,VALID,0,VALID,92.3196,VALID,0,VALID,18.3979,VALID,139,VALID,0,
2013-07-07, 00:04:05,VALID,917.781,VALID,0,VALID,92.2586,VALID,0.107441,VALID,18.3589,VALID,138,VALID,0,
2013-07-07, 00:05:05,VALID,917.764,VALID,0,VALID,92.3196,VALID,0,VALID,18.3394,VALID,136,VALID,0,
2013-07-07, 00:06:05,VALID,917.763,VALID,0,VALID,92.2891,VALID,0,VALID,18.3185,VALID,136,VALID,0,
2013-07-07, 00:07:05,VALID,917.778,VALID,0,VALID,92.2128,VALID,0,VALID,18.3394,VALID,136,VALID,0,
2013-07-07, 00:08:05,VALID,917.792,VALID,0,VALID,92.411,VALID,0,VALID,18.3394,VALID,136,VALID,0,
2013-07-07, 00:09:05,VALID,917.791,VALID,0,VALID,92.2433,VALID,0,VALID,18.3394,VALID,131,VALID,0,
2013-07-07, 00:10:05,VALID,917.775,VALID,0,VALID,92.3119,VALID,0,VALID,18.3589,VALID,133,VALID,0,
2013-07-07, 00:11:05,VALID,917.792,VALID,0,VALID,92.4187,VALID,0,VALID,18.3589,VALID,134,VALID,0,
2013-07-07, 00:12:05,VALID,917.791,VALID,0,VALID,92.4949,VALID,0.107441,VALID,18.377,VALID,134,VALID,0,
2013-07-07, 00:13:05,VALID,917.789,VALID,0,VALID,92.5483,VALID,0,VALID,18.4174,VALID,134,VALID,0,
2013-07-07, 00:14:05,VALID,917.759,VALID,0,VALID,92.5254,VALID,0.107441,VALID,18.3965,VALID,134,VALID,0,
2013-07-07, 00:15:05,VALID,917.746,VALID,0,VALID,92.4949,VALID,0,VALID,18.4174,VALID,134,VALID,0,
2013-07-07, 00:16:05,VALID,917.735,VALID,0,VALID,92.594,VALID,0,VALID,18.4759,VALID,134,VALID,0,
2013-07-07, 00:17:05,VALID,917.724,VALID,0,VALID,92.6016,VALID,0.107441,VALID,18.4954,VALID,134,VALID,0,
2013-07-07, 00:18:05,VALID,917.726,VALID,0,VALID,92.6626,VALID,0.107441,VALID,18.5149,VALID,134,VALID,0,
2013-07-07, 00:19:05,VALID,917.717,VALID,0,VALID,92.7084,VALID,0,VALID,18.5734,VALID,134,VALID,0,
2013-07-07, 00:20:05,VALID,917.715,VALID,0,VALID,92.0985,VALID,0.107441,VALID,18.5539,VALID,134,VALID,0,
2013-07-07, 00:21:05,VALID,917.704,VALID,0,VALID,91.5344,VALID,0,VALID,18.4759,VALID,134,VALID,0,
2013-07-07, 00:22:05,VALID,917.693,VALID,0,VALID,91.5039,VALID,0,VALID,18.4369,VALID,134,VALID,0,
2013-07-07, 00:23:05,VALID,917.684,VALID,0,VALID,91.359,VALID,0,VALID,18.4174,VALID,134,VALID,0,
2013-07-07, 00:24:05,VALID,917.635,VALID,0,VALID,91.7097,VALID,0.107441,VALID,18.4174,VALID,134,VALID,0,
2013-07-07, 00:25:05,VALID,917.665,VALID,0,VALID,92.129,VALID,0,VALID,18.4188,VALID,134,VALID,0,
2013-07-07, 00:26:05,VALID,917.636,VALID,0,VALID,92.0909,VALID,0,VALID,18.3993,VALID,134,VALID,0,
2013-07-07, 00:27:05,VALID,917.613,VALID,0,VALID,91.946,VALID,0,VALID,18.3408,VALID,134,VALID,0,
2013-07-07, 00:28:05,VALID,917.616,VALID,0,VALID,92.2205,VALID,0,VALID,18.3213,VALID,134,VALID,0,
2013-07-07, 00:29:05,VALID,917.632,VALID,0,VALID,92.2281,VALID,0,VALID,18.2628,VALID,134,VALID,0,
2013-07-07, 00:30:05,VALID,917.608,VALID,0,VALID,92.1061,VALID,0,VALID,18.164,VALID,134,VALID,0,
2013-07-07, 00:31:05,VALID,917.608,VALID,0,VALID,92.533,VALID,0,VALID,18.1849,VALID,134,VALID,0,
2013-07-07, 00:32:05,VALID,917.604,VALID,0,VALID,93.5088,VALID,0,VALID,18.2823,VALID,134,VALID,0,
2013-07-07, 00:33:05,VALID,917.588,VALID,0,VALID,94.3474,VALID,0,VALID,18.3979,VALID,134,VALID,0,
2013-07-07, 00:34:05,VALID,917.598,VALID,0,VALID,94.82,VALID,0,VALID,18.4773,VALID,134,VALID,0,
2013-07-07, 00:35:05,VALID,917.592,VALID,0,VALID,95.125,VALID,0,VALID,18.5358,VALID,134,VALID,0,
2013-07-07, 00:36:05,VALID,917.598,VALID,0,VALID,95.2317,VALID,0,VALID,18.6138,VALID,134,VALID,0,
2013-07-07, 00:37:05,VALID,917.585,VALID,0,VALID,95.2698,VALID,0,VALID,18.6333,VALID,134,VALID,0,
2013-07-07, 00:38:05,VALID,917.571,VALID,0,VALID,95.3232,VALID,0,VALID,18.6723,VALID,134,VALID,0,
2013-07-07, 00:39:05,VALID,917.61,VALID,0,VALID,95.4071,VALID,0,VALID,18.7113,VALID,134,VALID,0,
2013-07-07, 00:40:05,VALID,917.577,VALID,0,VALID,95.4223,VALID,0.107441,VALID,18.7293,VALID,134,VALID,0,
2013-07-07, 00:41:05,VALID,917.567,VALID,0,VALID,95.3613,VALID,0.107441,VALID,18.7098,VALID,134,VALID,0,
2013-07-07, 00:42:05,VALID,917.573,VALID,0,VALID,95.2927,VALID,0.107441,VALID,18.6708,VALID,134,VALID,0,
2013-07-07, 00:43:05,VALID,917.561,VALID,0,VALID,95.2546,VALID,0,VALID,18.6513,VALID,134,VALID,0,
2013-07-07, 00:44:05,VALID,917.546,VALID,0,VALID,95.1783,VALID,0,VALID,18.5929,VALID,134,VALID,0,
2013-07-07, 00:45:05,VALID,917.555,VALID,0,VALID,95.1707,VALID,0,VALID,18.5539,VALID,134,VALID,0,
2013-07-07, 00:46:05,VALID,917.541,VALID,0,VALID,95.064,VALID,0,VALID,18.4954,VALID,134,VALID,0,
2013-07-07, 00:47:05,VALID,917.556,VALID,0,VALID,95.0183,VALID,0.107441,VALID,18.4369,VALID,134,VALID,0,
2013-07-07, 00:48:05,VALID,917.533,VALID,0,VALID,94.9192,VALID,0.107441,VALID,18.3979,VALID,134,VALID,0,
2013-07-07, 00:49:05,VALID,917.498,VALID,0,VALID,94.8658,VALID,0.107441,VALID,18.338,VALID,134,VALID,0,
2013-07-07, 00:50:05,VALID,917.492,VALID,0,VALID,94.8429,VALID,0,VALID,18.3199,VALID,134,VALID,0,
2013-07-07, 00:51:05,VALID,917.467,VALID,0,VALID,94.6981,VALID,0,VALID,18.3199,VALID,140,VALID,0,
2013-07-07, 00:52:05,VALID,917.451,VALID,0,VALID,94.538,VALID,0,VALID,18.2601,VALID,140,VALID,0,
2013-07-07, 00:53:05,VALID,917.445,VALID,0,VALID,94.3093,VALID,0,VALID,18.2615,VALID,140,VALID,0,
2013-07-07, 00:54:05,VALID,917.421,VALID,0,VALID,94.1568,VALID,0,VALID,18.242,VALID,140,VALID,0,
2013-07-07, 00:55:05,VALID,917.402,VALID,0,VALID,93.9129,VALID,0.107441,VALID,18.2238,VALID,140,VALID,0,
2013-07-07, 00:56:05,VALID,917.41,VALID,0,VALID,93.6765,VALID,0,VALID,18.164,VALID,140,VALID,0,
2013-07-07, 00:57:05,VALID,917.405,VALID,0,VALID,93.5012,VALID,0,VALID,18.1055,VALID,140,VALID,0,
2013-07-07, 00:58:05,VALID,917.405,VALID,0,VALID,93.4631,VALID,0,VALID,18.086,VALID,140,VALID,0,
2013-07-07, 00:59:05,VALID,917.417,VALID,0,VALID,93.5164,VALID,0,VALID,18.0665,VALID,140,VALID,0,
2013-07-07, 01:00:05,VALID,917.428,VALID,0,VALID,93.5012,VALID,0.107441,VALID,18.047,VALID,140,VALID,0,
2013-07-07, 01:01:05,VALID,917.409,VALID,0,VALID,93.2115,VALID,0.107441,VALID,18.0665,VALID,140,VALID,0,
2013-07-07, 01:02:05,VALID,917.374,VALID,0,VALID,92.8075,VALID,0.107441,VALID,18.125,VALID,137,VALID,0,
2013-07-07, 01:03:05,VALID,917.382,VALID,0,VALID,92.3729,VALID,0,VALID,18.164,VALID,129,VALID,0,
2013-07-07, 01:04:05,VALID,917.376,VALID,0,VALID,92.0756,VALID,0,VALID,18.203,VALID,130,VALID,0,
2013-07-07, 01:05:05,VALID,917.347,VALID,0,VALID,91.7249,VALID,0,VALID,18.2628,VALID,117,VALID,0,
2013-07-07, 01:06:05,VALID,917.375,VALID,0,VALID,91.3361,VALID,0,VALID,18.203,VALID,117,VALID,0,
2013-07-07, 01:07:05,VALID,917.33,VALID,0,VALID,91.1761,VALID,0,VALID,18.1431,VALID,117,VALID,0,
2013-07-07, 01:08:05,VALID,917.33,VALID,0,VALID,91.1684,VALID,0,VALID,18.1445,VALID,117,VALID,0,
2013-07-07, 01:09:05,VALID,917.333,VALID,0,VALID,91.0693,VALID,0.107441,VALID,18.1055,VALID,121,VALID,0,
2013-07-07, 01:10:05,VALID,917.318,VALID,0,VALID,91.0312,VALID,0,VALID,18.125,VALID,125,VALID,0,
2013-07-07, 01:11:05,VALID,917.319,VALID,0,VALID,91.0236,VALID,0,VALID,18.086,VALID,125,VALID,0,
2013-07-07, 01:12:05,VALID,917.331,VALID,0,VALID,91.0846,VALID,0,VALID,18.0679,VALID,127,VALID,0,
2013-07-07, 01:13:05,VALID,917.296,VALID,0,VALID,91.1151,VALID,0,VALID,18.0484,VALID,122,VALID,0,
2013-07-07, 01:14:05,VALID,917.294,VALID,0,VALID,91.1761,VALID,0,VALID,17.9886,VALID,126,VALID,0,
2013-07-07, 01:15:05,VALID,917.25,VALID,0,VALID,91.298,VALID,0,VALID,17.9899,VALID,134,VALID,0,
2013-07-07, 01:16:05,VALID,917.232,VALID,0,VALID,91.0922,VALID,0,VALID,18.008,VALID,132,VALID,0,
2013-07-07, 01:17:05,VALID,917.252,VALID,0,VALID,90.9016,VALID,0,VALID,18.0484,VALID,134,VALID,0,
2013-07-07, 01:18:05,VALID,917.23,VALID,0,VALID,90.7339,VALID,0,VALID,18.0275,VALID,131,VALID,0,
2013-07-07, 01:19:05,VALID,917.277,VALID,0,VALID,90.6119,VALID,0,VALID,18.0275,VALID,136,VALID,0,
2013-07-07, 01:20:05,VALID,917.27,VALID,0,VALID,90.5586,VALID,0,VALID,18.0484,VALID,136,VALID,0,
2013-07-07, 01:21:05,VALID,917.269,VALID,0,VALID,90.6195,VALID,0,VALID,18.0289,VALID,136,VALID,0,
2013-07-07, 01:22:05,VALID,917.251,VALID,0,VALID,90.894,VALID,0,VALID,17.9691,VALID,136,VALID,0,
2013-07-07, 01:23:05,VALID,917.218,VALID,0,VALID,91.0541,VALID,0,VALID,17.9899,VALID,136,VALID,0,
2013-07-07, 01:24:05,VALID,917.241,VALID,0,VALID,91.2523,VALID,0,VALID,17.9704,VALID,136,VALID,0,
2013-07-07, 01:25:05,VALID,917.226,VALID,0,VALID,91.2828,VALID,0.107441,VALID,17.9691,VALID,136,VALID,0,
2013-07-07, 01:26:05,VALID,917.194,VALID,0,VALID,91.1608,VALID,0,VALID,17.9496,VALID,136,VALID,0,
2013-07-07, 01:27:05,VALID,917.173,VALID,0,VALID,91.237,VALID,0,VALID,17.9496,VALID,136,VALID,0,
2013-07-07, 01:28:05,VALID,917.182,VALID,0,VALID,91.2904,VALID,0,VALID,17.9704,VALID,136,VALID,0,
2013-07-07, 01:29:05,VALID,917.208,VALID,0,VALID,91.2599,VALID,0,VALID,17.9496,VALID,136,VALID,0,
2013-07-07, 01:30:05,VALID,917.185,VALID,0,VALID,91.4886,VALID,0.107441,VALID,18.0094,VALID,136,VALID,0,
2013-07-07, 01:31:05,VALID,917.17,VALID,0,VALID,91.4886,VALID,0,VALID,18.1069,VALID,133,VALID,0,
2013-07-07, 01:32:05,VALID,917.172,VALID,0,VALID,91.0998,VALID,0,VALID,18.1654,VALID,131,VALID,0,
2013-07-07, 01:33:05,VALID,917.179,VALID,0,VALID,90.7949,VALID,0.107441,VALID,18.2044,VALID,133,VALID,0,
2013-07-07, 01:34:05,VALID,917.123,VALID,0,VALID,90.5814,VALID,0,VALID,18.2615,VALID,132,VALID,0,
2013-07-07, 01:35:05,VALID,917.113,VALID,0,VALID,90.3604,VALID,0,VALID,18.2823,VALID,130,VALID,0,
2013-07-07, 01:36:05,VALID,917.073,VALID,0,VALID,90.3375,VALID,0,VALID,18.2823,VALID,133,VALID,0,
2013-07-07, 01:37:05,VALID,917.071,VALID,0,VALID,90.368,VALID,0,VALID,18.2628,VALID,133,VALID,0,
2013-07-07, 01:38:05,VALID,917.082,VALID,0,VALID,90.368,VALID,0,VALID,18.2628,VALID,133,VALID,0,
2013-07-07, 01:39:05,VALID,917.064,VALID,0,VALID,90.3299,VALID,0,VALID,18.2225,VALID,136,VALID,0,
2013-07-07, 01:40:05,VALID,917.053,VALID,0,VALID,90.4442,VALID,0,VALID,18.2433,VALID,137,VALID,0,
2013-07-07, 01:41:05,VALID,917.043,VALID,0,VALID,90.5052,VALID,0,VALID,18.2238,VALID,137,VALID,0,
2013-07-07, 01:42:05,VALID,917.064,VALID,0,VALID,90.7949,VALID,0.107441,VALID,18.2225,VALID,137,VALID,0,
2013-07-07, 01:43:05,VALID,917.033,VALID,0,VALID,90.8635,VALID,0.107441,VALID,18.2628,VALID,131,VALID,0,
2013-07-07, 01:44:04,VALID,917.009,VALID,0,VALID,90.7568,VALID,0,VALID,18.2823,VALID,131,VALID,0,
2013-07-07, 01:45:04,VALID,917.01,VALID,0,VALID,90.9855,VALID,0,VALID,18.2809,VALID,131,VALID,0,
2013-07-07, 01:46:04,VALID,917.018,VALID,0,VALID,91.2142,VALID,0,VALID,18.3004,VALID,130,VALID,0,
2013-07-07, 01:47:04,VALID,917.015,VALID,0,VALID,91.3057,VALID,0,VALID,18.3213,VALID,138,VALID,0,
2013-07-07, 01:48:04,VALID,916.998,VALID,0,VALID,91.1608,VALID,0,VALID,18.3199,VALID,138,VALID,0,
2013-07-07, 01:49:04,VALID,917.012,VALID,0,VALID,90.833,VALID,0,VALID,18.3004,VALID,128,VALID,0,
2013-07-07, 01:50:04,VALID,916.958,VALID,0,VALID,90.5814,VALID,0,VALID,18.3394,VALID,129,VALID,0,
2013-07-07, 01:51:04,VALID,916.975,VALID,0,VALID,90.4137,VALID,0,VALID,18.3408,VALID,144,VALID,0,
2013-07-07, 01:52:04,VALID,916.963,VALID,0,VALID,90.4061,VALID,0,VALID,18.3589,VALID,140,VALID,0,
2013-07-07, 01:53:04,VALID,916.972,VALID,0,VALID,90.2765,VALID,0,VALID,18.4188,VALID,139,VALID,0,
2013-07-07, 01:54:04,VALID,916.934,VALID,0,VALID,90.0249,VALID,0,VALID,18.4369,VALID,134,VALID,0,
2013-07-07, 01:55:04,VALID,916.895,VALID,0,VALID,89.72,VALID,0,VALID,18.4773,VALID,132,VALID,0,
2013-07-07, 01:56:04,VALID,916.857,VALID,0,VALID,89.5599,VALID,0,VALID,18.4564,VALID,123,VALID,0,
2013-07-07, 01:57:04,VALID,916.819,VALID,0,VALID,89.5904,VALID,0,VALID,18.4369,VALID,121,VALID,0,
2013-07-07, 01:58:04,VALID,916.824,VALID,0,VALID,89.9106,VALID,0,VALID,18.4174,VALID,121,VALID,0,
2013-07-07, 01:59:04,VALID,916.795,VALID,0,VALID,90.0783,VALID,0,VALID,18.3979,VALID,126,VALID,0,
2013-07-07, 02:00:04,VALID,916.806,VALID,0,VALID,90.1545,VALID,0,VALID,18.3784,VALID,126,VALID,0,
2013-07-07, 02:01:04,VALID,916.792,VALID,0,VALID,90.1698,VALID,0.107441,VALID,18.3784,VALID,127,VALID,0,
2013-07-07, 02:02:04,VALID,916.779,VALID,0,VALID,90.1088,VALID,0.107441,VALID,18.3784,VALID,148,VALID,0,
2013-07-07, 02:03:04,VALID,916.797,VALID,0,VALID,90.0478,VALID,0,VALID,18.3589,VALID,145,VALID,0,
2013-07-07, 02:04:04,VALID,916.756,VALID,0,VALID,89.9639,VALID,0,VALID,18.3784,VALID,136,VALID,0,
2013-07-07, 02:05:04,VALID,916.767,VALID,0,VALID,89.7352,VALID,0,VALID,18.4174,VALID,129,VALID,0,
2013-07-07, 02:06:04,VALID,916.758,VALID,0,VALID,89.415,VALID,0,VALID,18.4773,VALID,115,VALID,0,
2013-07-07, 02:07:04,VALID,916.738,VALID,0,VALID,89.4608,VALID,0,VALID,18.4578,VALID,125,VALID,0,
2013-07-07, 02:08:04,VALID,916.706,VALID,0,VALID,89.6895,VALID,0,VALID,18.4174,VALID,129,VALID,0,
2013-07-07, 02:09:04,VALID,916.712,VALID,0,VALID,89.6895,VALID,0,VALID,18.4188,VALID,133,VALID,0,
2013-07-07, 02:10:04,VALID,916.665,VALID,0,VALID,89.72,VALID,0,VALID,18.3784,VALID,134,VALID,0,
2013-07-07, 02:11:04,VALID,916.656,VALID,0,VALID,89.7733,VALID,0.107441,VALID,18.3979,VALID,136,VALID,0,
2013-07-07, 02:12:04,VALID,916.644,VALID,0,VALID,89.7657,VALID,0,VALID,18.3979,VALID,127,VALID,0,
2013-07-07, 02:13:04,VALID,916.642,VALID,0,VALID,89.8343,VALID,0.107441,VALID,18.3784,VALID,127,VALID,0,
2013-07-07, 02:14:04,VALID,916.587,VALID,0,VALID,90.0173,VALID,0.107441,VALID,18.3589,VALID,127,VALID,0,
2013-07-07, 02:15:04,VALID,916.578,VALID,0,VALID,90.2384,VALID,0.107441,VALID,18.3394,VALID,129,VALID,0,
2013-07-07, 02:16:04,VALID,916.603,VALID,0,VALID,90.4366,VALID,0,VALID,18.3408,VALID,133,VALID,0,
2013-07-07, 02:17:04,VALID,916.63,VALID,0,VALID,90.6805,VALID,0,VALID,18.3213,VALID,131,VALID,0,
2013-07-07, 02:18:04,VALID,916.62,VALID,0,VALID,90.9016,VALID,0.107441,VALID,18.2615,VALID,131,VALID,0,
2013-07-07, 02:19:04,VALID,916.644,VALID,0,VALID,91.1074,VALID,0,VALID,18.2225,VALID,124,VALID,0,
2013-07-07, 02:20:04,VALID,916.669,VALID,0,VALID,91.0312,VALID,0.107441,VALID,18.203,VALID,123,VALID,0,
2013-07-07, 02:21:04,VALID,916.668,VALID,0,VALID,91.0083,VALID,0,VALID,18.1849,VALID,116,VALID,0,
2013-07-07, 02:22:04,VALID,916.64,VALID,0,VALID,90.7949,VALID,0,VALID,18.164,VALID,124,VALID,0,
2013-07-07, 02:23:04,VALID,916.631,VALID,0,VALID,90.6424,VALID,0,VALID,18.1445,VALID,123,VALID,0,
2013-07-07, 02:24:04,VALID,916.618,VALID,0,VALID,90.5738,VALID,0.107441,VALID,18.1055,VALID,121,VALID,0,
2013-07-07, 02:25:04,VALID,916.632,VALID,0,VALID,90.7568,VALID,0,VALID,18.0289,VALID,119,VALID,0,
2013-07-07, 02:26:04,VALID,916.599,VALID,0,VALID,91.0998,VALID,0,VALID,17.9704,VALID,117,VALID,0,
2013-07-07, 02:27:04,VALID,916.559,VALID,0,VALID,91.6411,VALID,0,VALID,17.9328,VALID,116,VALID,0,
2013-07-07, 02:28:04,VALID,916.567,VALID,0,VALID,91.8545,VALID,0,VALID,17.8535,VALID,110,VALID,0,
2013-07-07, 02:29:04,VALID,916.571,VALID,0,VALID,92.1595,VALID,0,VALID,17.8145,VALID,112,VALID,0,
2013-07-07, 02:30:04,VALID,916.525,VALID,0,VALID,92.5102,VALID,0,VALID,17.795,VALID,115,VALID,0,
2013-07-07, 02:31:04,VALID,916.501,VALID,0,VALID,92.9752,VALID,0,VALID,17.7755,VALID,132,VALID,0,
2013-07-07, 02:32:04,VALID,916.484,VALID,0,VALID,93.4021,VALID,0,VALID,17.8145,VALID,120,VALID,0,
2013-07-07, 02:33:04,VALID,916.456,VALID,0,VALID,93.7528,VALID,0,VALID,17.8145,VALID,117,VALID,0,
2013-07-07, 02:34:04,VALID,916.433,VALID,0,VALID,94.0196,VALID,0,VALID,17.834,VALID,116,VALID,0,
2013-07-07, 02:35:04,VALID,916.384,VALID,0,VALID,94.2178,VALID,0,VALID,17.8938,VALID,116,VALID,0,
2013-07-07, 02:36:04,VALID,916.382,VALID,0,VALID,94.6295,VALID,0,VALID,17.9704,VALID,118,VALID,0,
2013-07-07, 02:37:04,VALID,916.36,VALID,0,VALID,94.8429,VALID,0,VALID,18.0484,VALID,118,VALID,0,
2013-07-07, 02:38:04,VALID,916.34,VALID,0,VALID,95.1631,VALID,0,VALID,18.1849,VALID,121,VALID,0,
2013-07-07, 02:39:04,VALID,916.299,VALID,0,VALID,95.003,VALID,0,VALID,18.2642,VALID,124,VALID,0,
2013-07-07, 02:40:04,VALID,916.329,VALID,0,VALID,94.9649,VALID,0.107441,VALID,18.2796,VALID,124,VALID,0,
2013-07-07, 02:41:04,VALID,916.293,VALID,0,VALID,94.7362,VALID,0,VALID,18.3004,VALID,124,VALID,0,
2013-07-07, 02:42:04,VALID,916.317,VALID,0,VALID,94.7591,VALID,0,VALID,18.299,VALID,124,VALID,0,
2013-07-07, 02:43:04,VALID,916.299,VALID,0,VALID,94.6142,VALID,0,VALID,18.3199,VALID,124,VALID,0,
2013-07-07, 02:44:04,VALID,916.296,VALID,0,VALID,94.4236,VALID,0.107441,VALID,18.3004,VALID,125,VALID,0,
2013-07-07, 02:45:04,VALID,916.291,VALID,0,VALID,94.4694,VALID,0.107441,VALID,18.3004,VALID,125,VALID,0,
2013-07-07, 02:46:04,VALID,916.291,VALID,0,VALID,94.7133,VALID,0.107441,VALID,18.3979,VALID,125,VALID,0,
2013-07-07, 02:47:04,VALID,916.29,VALID,0,VALID,94.3474,VALID,0.107441,VALID,18.3589,VALID,125,VALID,0,
2013-07-07, 02:48:04,VALID,916.276,VALID,0,VALID,94.1797,VALID,0.107441,VALID,18.3199,VALID,125,VALID,0,
2013-07-07, 02:49:04,VALID,916.284,VALID,0,VALID,94.1416,VALID,0,VALID,18.3018,VALID,125,VALID,0,
2013-07-07, 02:50:04,VALID,916.251,VALID,0,VALID,94.0882,VALID,0,VALID,18.2628,VALID,126,VALID,0,
2013-07-07, 02:51:04,VALID,916.259,VALID,0,VALID,94.0958,VALID,0,VALID,18.203,VALID,132,VALID,0,
2013-07-07, 02:52:04,VALID,916.262,VALID,0,VALID,94.1339,VALID,0.107441,VALID,18.1445,VALID,132,VALID,0,
2013-07-07, 02:53:04,VALID,916.229,VALID,0,VALID,94.2559,VALID,0.107441,VALID,18.125,VALID,131,VALID,0,
2013-07-07, 02:54:04,VALID,916.195,VALID,0,VALID,94.4694,VALID,0,VALID,18.1055,VALID,134,VALID,0,
2013-07-07, 02:55:04,VALID,916.199,VALID,0,VALID,94.599,VALID,0,VALID,18.086,VALID,135,VALID,0,
2013-07-07, 02:56:04,VALID,916.214,VALID,0,VALID,94.5685,VALID,0,VALID,18.0679,VALID,138,VALID,0,
2013-07-07, 02:57:04,VALID,916.203,VALID,0,VALID,94.6676,VALID,0.107441,VALID,18.0484,VALID,142,VALID,0,
2013-07-07, 02:58:04,VALID,916.2,VALID,0,VALID,94.5913,VALID,0,VALID,17.9691,VALID,142,VALID,0,
2013-07-07, 02:59:04,VALID,916.161,VALID,0,VALID,94.477,VALID,0,VALID,17.8911,VALID,150,VALID,0,
2013-07-07, 03:00:04,VALID,916.202,VALID,0,VALID,94.355,VALID,0,VALID,17.7936,VALID,164,VALID,0,
2013-07-07, 03:01:04,VALID,916.17,VALID,0,VALID,94.4084,VALID,0.107441,VALID,17.7547,VALID,164,VALID,0,
2013-07-07, 03:02:04,VALID,916.156,VALID,0,VALID,94.4846,VALID,0,VALID,17.6962,VALID,164,VALID,0,
2013-07-07, 03:03:04,VALID,916.176,VALID,0,VALID,94.5837,VALID,0,VALID,17.6572,VALID,163,VALID,0,
2013-07-07, 03:04:04,VALID,916.142,VALID,0,VALID,94.7362,VALID,0,VALID,17.6377,VALID,157,VALID,0,
2013-07-07, 03:05:04,VALID,916.139,VALID,0,VALID,95.2851,VALID,0,VALID,17.7157,VALID,148,VALID,0,
2013-07-07, 03:06:04,VALID,916.174,VALID,0,VALID,95.4604,VALID,0.107441,VALID,17.7547,VALID,137,VALID,0,
2013-07-07, 03:07:04,VALID,916.157,VALID,0,VALID,95.59,VALID,0,VALID,17.8131,VALID,127,VALID,0,
2013-07-07, 03:08:04,VALID,916.125,VALID,0,VALID,95.7044,VALID,0,VALID,17.8521,VALID,127,VALID,0,
2013-07-07, 03:09:04,VALID,916.159,VALID,0,VALID,95.7654,VALID,0.107441,VALID,17.8911,VALID,127,VALID,0,
2013-07-07, 03:10:04,VALID,916.139,VALID,0,VALID,95.7806,VALID,0,VALID,17.9301,VALID,127,VALID,0,
2013-07-07, 03:11:04,VALID,916.144,VALID,0,VALID,95.7577,VALID,0,VALID,17.9301,VALID,122,VALID,0,
2013-07-07, 03:12:04,VALID,916.133,VALID,0,VALID,95.7272,VALID,0,VALID,17.9301,VALID,121,VALID,0,
2013-07-07, 03:13:04,VALID,916.098,VALID,0,VALID,95.6662,VALID,0,VALID,17.9301,VALID,122,VALID,0,
2013-07-07, 03:14:04,VALID,916.069,VALID,0,VALID,95.6205,VALID,0,VALID,17.9106,VALID,122,VALID,0,
2013-07-07, 03:15:04,VALID,916.056,VALID,0,VALID,95.6129,VALID,0,VALID,17.9314,VALID,122,VALID,0,
2013-07-07, 03:16:04,VALID,916.04,VALID,0,VALID,95.59,VALID,0,VALID,17.8911,VALID,122,VALID,0,
2013-07-07, 03:17:04,VALID,916.055,VALID,0,VALID,95.5595,VALID,0,VALID,17.873,VALID,121,VALID,0,
2013-07-07, 03:18:04,VALID,916.042,VALID,0,VALID,95.5671,VALID,0,VALID,17.8521,VALID,121,VALID,0,
2013-07-07, 03:19:04,VALID,916.048,VALID,0,VALID,95.5671,VALID,0,VALID,17.8716,VALID,122,VALID,0,
2013-07-07, 03:20:04,VALID,916.026,VALID,0,VALID,95.5824,VALID,0,VALID,17.9106,VALID,121,VALID,0,
2013-07-07, 03:21:04,VALID,916.02,VALID,0,VALID,95.6053,VALID,0,VALID,17.9301,VALID,121,VALID,0,
2013-07-07, 03:22:04,VALID,916.004,VALID,0,VALID,95.6739,VALID,0,VALID,18.0094,VALID,121,VALID,0,
2013-07-07, 03:23:04,VALID,916.025,VALID,0,VALID,95.59,VALID,0,VALID,17.9886,VALID,121,VALID,0,
2013-07-07, 03:24:04,VALID,916.004,VALID,0,VALID,95.4909,VALID,0,VALID,18.0289,VALID,120,VALID,0,
2013-07-07, 03:25:04,VALID,916.029,VALID,0,VALID,95.5138,VALID,0,VALID,18.086,VALID,119,VALID,0,
2013-07-07, 03:26:04,VALID,916.018,VALID,0,VALID,95.3537,VALID,0,VALID,18.086,VALID,120,VALID,0,
2013-07-07, 03:27:04,VALID,916.058,VALID,0,VALID,95.2546,VALID,0,VALID,18.0665,VALID,120,VALID,0,
2013-07-07, 03:28:04,VALID,916.027,VALID,0,VALID,95.1326,VALID,0,VALID,18.0665,VALID,119,VALID,0,
2013-07-07, 03:29:04,VALID,916.011,VALID,0,VALID,95.0564,VALID,0,VALID,18.0679,VALID,119,VALID,0,
2013-07-07, 03:30:04,VALID,916.022,VALID,0,VALID,95.0792,VALID,0,VALID,18.0275,VALID,121,VALID,0,
2013-07-07, 03:31:04,VALID,915.992,VALID,0,VALID,95.0716,VALID,0,VALID,18.008,VALID,130,VALID,0,
2013-07-07, 03:32:04,VALID,916.005,VALID,0,VALID,95.0183,VALID,0,VALID,17.9886,VALID,122,VALID,0,
2013-07-07, 03:33:04,VALID,916.033,VALID,0,VALID,94.9192,VALID,0,VALID,17.9899,VALID,121,VALID,0,
2013-07-07, 03:34:04,VALID,915.997,VALID,0,VALID,94.9573,VALID,0,VALID,17.9691,VALID,121,VALID,0,
2013-07-07, 03:35:04,VALID,915.988,VALID,0,VALID,94.9115,VALID,0,VALID,17.9314,VALID,116,VALID,0,
2013-07-07, 03:36:04,VALID,915.971,VALID,0,VALID,94.942,VALID,0,VALID,17.9106,VALID,116,VALID,0,
2013-07-07, 03:37:04,VALID,915.962,VALID,0,VALID,94.9115,VALID,0,VALID,17.8716,VALID,116,VALID,0,
2013-07-07, 03:38:04,VALID,915.925,VALID,0,VALID,94.9954,VALID,0,VALID,17.8911,VALID,122,VALID,0,
2013-07-07, 03:39:04,VALID,915.923,VALID,0,VALID,95.0411,VALID,0,VALID,17.8911,VALID,128,VALID,0,
2013-07-07, 03:40:04,VALID,915.955,VALID,0,VALID,95.003,VALID,0.107441,VALID,17.8911,VALID,131,VALID,0,
2013-07-07, 03:41:04,VALID,915.954,VALID,0,VALID,95.0716,VALID,0.107441,VALID,17.8911,VALID,133,VALID,0,
2013-07-07, 03:42:04,VALID,915.926,VALID,0,VALID,95.1326,VALID,0,VALID,17.8911,VALID,134,VALID,0,
2013-07-07, 03:43:04,VALID,915.938,VALID,0,VALID,95.1555,VALID,0.107441,VALID,17.9496,VALID,132,VALID,0,
2013-07-07, 03:44:04,VALID,915.928,VALID,0,VALID,95.0106,VALID,0,VALID,17.9509,VALID,132,VALID,0,
2013-07-07, 03:45:04,VALID,915.938,VALID,0,VALID,94.9954,VALID,0,VALID,17.9704,VALID,132,VALID,0,
2013-07-07, 03:46:04,VALID,915.943,VALID,0,VALID,94.9649,VALID,0,VALID,17.9301,VALID,132,VALID,0,
2013-07-07, 03:47:04,VALID,915.959,VALID,0,VALID,94.9954,VALID,0,VALID,17.9496,VALID,137,VALID,0,
2013-07-07, 03:48:04,VALID,915.963,VALID,0,VALID,95.0792,VALID,0,VALID,17.9886,VALID,137,VALID,0,
2013-07-07, 03:49:04,VALID,915.951,VALID,0,VALID,94.9344,VALID,0,VALID,17.9886,VALID,136,VALID,0,
2013-07-07, 03:50:04,VALID,915.921,VALID,0,VALID,94.82,VALID,0,VALID,17.9691,VALID,135,VALID,0,
2013-07-07, 03:51:04,VALID,915.942,VALID,0,VALID,94.7743,VALID,0,VALID,17.9301,VALID,139,VALID,0,
2013-07-07, 03:52:04,VALID,915.922,VALID,0,VALID,94.8582,VALID,0.107441,VALID,17.9509,VALID,142,VALID,0,
2013-07-07, 03:53:04,VALID,915.924,VALID,0,VALID,94.9115,VALID,0,VALID,17.9301,VALID,131,VALID,0,
2013-07-07, 03:54:04,VALID,915.878,VALID,0,VALID,94.9496,VALID,0,VALID,17.9106,VALID,138,VALID,0,
2013-07-07, 03:55:04,VALID,915.879,VALID,0,VALID,94.942,VALID,0,VALID,17.9119,VALID,140,VALID,0,
2013-07-07, 03:56:04,VALID,915.907,VALID,0,VALID,94.9801,VALID,0,VALID,17.8911,VALID,131,VALID,0,